Epoch 2009 June 18.0 TT = JDT 2455000.5  

T 2009 July 6.61553 TT                                  Nakano

q   3.1260570            (2000.0)            P               Q

z  -0.0000321      Peri.  133.51866     +0.67604569     -0.09047438

 +/-0.0000181      Node   113.57263     -0.64879807     -0.54356375

e   1.0001002      Incl.  127.07350     +0.34931831     -0.83447758

From 180 observations 2006 Oct. 29-2007 Sept. 7, mean residual 0".61.

   (1/a)org.= +0.000347, (1/a)fut.= +0.000215 (+/-0.000018), Q= 6.



NAKANO

         **** Don't distribute anyone except personal use only ****

                (C) Copyright 2007 OAA/ComputingSection

write mail from CFAD0::NAKANO on 2007-09-16 02:42:41(JST).

 





    C/2006 W3 (Christensen)

Epoch 2009 June 18.0 TT = JDT 2455000.5  

T 2009 July 6.50514 TT                                  Nakano

q   3.1255026            (2000.0)            P               Q

z  -0.0000680      Peri.  133.52056     +0.67600507     -0.09049979

 +/-0.0000258      Node   113.57088     -0.64885230     -0.54352338

e   1.0002127      Incl.  127.07095     +0.34929621     -0.83450112

From 168 observations 2006 Oct. 29-2007 Apr. 8, mean residual 0".62.

   (1/a)org.= +0.000312, (1/a)fut.= +0.000179 (+/-0.000026), Q= 6.



NAKANO

         **** Don't distribute anyone except personal use only ****

                (C) Copyright 2007 OAA/ComputingSection

write mail from CFAD0::NAKANO on 2007-05-04 04:01:44(JST).







    C/2006 W3 (Christensen)

Epoch 2009 June 18.0 TT = JDT 2455000.5  

T 2009 July 6.42795 TT                                  Nakano

q   3.1246478            (2000.0)            P               Q

z  -0.0000740      Peri.  133.52983     +0.67595976     -0.09061257

 +/-0.0000599      Node   113.56941     -0.64897000     -0.54340308

e   1.0002311      Incl.  127.06890     +0.34916521     -0.83456722

From 145 observations 2006 Oct. 29-2007 Feb. 8, mean residual 0".57.

   (1/a)org.= +0.000310, (1/a)fut.= +0.000178 (+/-0.000060), Q= 5.





NAKANO

         **** Don't distribute anyone except personal use only ****

                (C) Copyright 2007 OAA/ComputingSection

write mail from CFAD0::NAKANO on 2007-02-11 07:48:38(JST).

 



    C/2006 W3 (Christensen)

T 2009 July 6.66206 TT                                  Nakano

q   3.1265855            (2000.0)            P               Q

                   Peri.  133.48438     +0.67568536     -0.09019591

                   Node   113.54910     -0.64889274     -0.54376110

e   1.0            Incl.  127.04899     +0.34983925     -0.83437915

From 113 observations 2006 Oct. 29-Dec. 31.

NAKANO

         **** Don't distribute anyone except personal use only ****

                (C) Copyright 2007 OAA/ComputingSection

write mail from CFAD0::NAKANO on 2007-01-11 23:59:04(JST).

 

    C/2006 W3 (Christensen)

T 2009 July 6.01407 TT                                  Nakano

q   3.1183602            (2000.0)            P               Q

                   Peri.  133.57903     +0.67521888     -0.09134699

                   Node   113.53387     -0.65009648     -0.54253134

e   1.0            Incl.  127.02793     +0.34850255     -0.83505417

From 57 observations 2006 Nov. 18-30.



NAKANO

         **** Don't distribute anyone except personal use only ****

                (C) Copyright 2006 OAA/ComputingSection

write mail from CFAD0::NAKANO on 2006-12-06 04:14:31(JST).

 



◎C/2006 W3の軌道と予報位置です



 上尾の門田健一氏から,11月21日の観測が報告されました.氏の CCD全光度は,

18.0等でした.なお,この軌道が正しければ,彗星は,近日点通過頃(2008年末)

に7等級まで明るくなるでしょう.ただし,観測条件は,良くありません.



    C/2006 W3 (Christensen)

T 2008 Dec. 14.57046 TT                                 Nakano

q   1.3994867            (2000.0)            P               Q

                   Peri.  155.66202     +0.50602129     -0.30768795

                   Node   109.52678     -0.86246180     -0.19144576

e   1.0            Incl.  121.24632     +0.01010485     -0.93202824

From 31 observations 2006 Nov. 18-21.

 

Date/  0h TT  R.A.(2000) Decl.     Delta   r     Daily motion  Mag.  Moon Age

                h  m       。  ,                      ,  / PA 。  m1      。

2006 Nov. 20  06 59.14  +46 23.4   7.273  7.963     7.7 / 306  17.8  124  .01

          21  06 58.54  +46 27.9   7.255  7.956     7.8 / 305  17.8  136  .00

          22  06 57.92  +46 32.4   7.236  7.948     7.9 / 305  17.8  146  .01

          23  06 57.29  +46 36.9   7.218  7.940     8.0 / 304  17.8  156  .05

          24  06 56.65  +46 41.4   7.200  7.932     8.1 / 303  17.8  161  .10

          25  06 55.99  +46 45.8   7.183  7.924     8.2 / 303  17.8  158  .17

          26  06 55.32  +46 50.2   7.165  7.916     8.3 / 302  17.8  149  .26

          27  06 54.63  +46 54.6   7.148  7.908     8.4 / 301  17.8  138  .36

          28  06 53.93  +46 58.9   7.131  7.901     8.5 / 300  17.7  125  .47

          29  06 53.22  +47 03.2   7.115  7.893     8.6 / 300  17.7  112  .58

          30  06 52.49  +47 07.4   7.098  7.885     8.7 / 299  17.7   98  .69

     Dec.  1  06 51.75  +47 11.6   7.082  7.877     8.7 / 299  17.7   85  .79

           2  06 50.99  +47 15.8   7.067  7.869     8.8 / 298  17.7   71  .88

           3  06 50.22  +47 19.9   7.051  7.861     8.9 / 297  17.7   57  .94

           4  06 49.44  +47 24.0   7.036  7.853     9.0 / 297  17.7   44  .98

           5  06 48.65  +47 28.0   7.021  7.846     9.1 / 296  17.7   32 1.00

           6  06 47.85  +47 32.0   7.006  7.838     9.2 / 295  17.7   23  .99

           7  06 47.03  +47 35.9   6.992  7.830     9.2 / 295  17.7   20  .95

           8  06 46.20  +47 39.8   6.978  7.822     9.3 / 294  17.7   25  .89

           9  06 45.36  +47 43.6   6.964  7.814     9.4 / 294  17.6   34  .82

          10  06 44.51  +47 47.3   6.951  7.806     9.4 / 293  17.6   45  .74

          11  06 43.64  +47 51.0   6.938  7.798     9.5 / 292  17.6   56  .65

          12  06 42.77  +47 54.6   6.925  7.790     9.6 / 292  17.6   67  .56

          13  06 41.89  +47 58.1   6.912  7.783     9.6 / 291  17.6   79  .46

          14  06 40.99  +48 01.6   6.900  7.775     9.7 / 291  17.6   90  .37

          15  06 40.09  +48 05.0   6.888  7.767     9.7 / 290  17.6  101  .28

          16  06 39.17  +48 08.3   6.877  7.759     9.8 / 289  17.6  112  .20

          17  06 38.25  +48 11.6   6.866  7.751     9.8 / 289  17.6  124  .13

          18  06 37.32  +48 14.8   6.855  7.743     9.9 / 288  17.6  135  .07

          19  06 36.38  +48 17.8   6.844  7.735     9.9 / 288  17.6  146  .03

          20  06 35.43  +48 20.8   6.834  7.727    10.0 / 287  17.6  155  .01

          21  06 34.48  +48 23.8   6.824  7.719    10.0 / 287  17.5  160  .00

          22  06 33.51  +48 26.6   6.814  7.711    10.0 / 286  17.5  157  .02

          23  06 32.55  +48 29.4   6.805  7.703    10.0 / 285  17.5  148  .07

          24  06 31.57  +48 32.0   6.796  7.695    10.1 / 285  17.5  136  .14

          25  06 30.59  +48 34.6   6.788  7.688    10.1 / 284  17.5  124  .22

          26  06 29.60  +48 37.1   6.779  7.680    10.1 / 284  17.5  110  .32

          27  06 28.61  +48 39.5   6.771  7.672    10.1 / 283  17.5   97  .43

          28  06 27.62  +48 41.8   6.764  7.664    10.1 / 283  17.5   84  .54

          29  06 26.62  +48 44.0   6.756  7.656    10.1 / 282  17.5   70  .65

          30  06 25.62  +48 46.1   6.749  7.648    10.1 / 282  17.5   57  .76

          31  06 24.62  +48 48.1   6.743  7.640    10.1 / 281  17.5   45  .85

2007 Jan.  1  06 23.61  +48 50.0   6.737  7.632    10.1 / 280  17.5   33  .92

NAKANO

         **** Don't distribute anyone except personal use only ****

                (C) Copyright 2006 OAA/ComputingSection

write mail from CFAD0::NAKANO on 2006-11-22 06:03:10(JST).

 





戻ります。